Theta_e
285 284 285 285 285 285 285 286 286 287 287 287 289 291 293 293 294 295 297 299 302 304 306 307 309 311 312 312 312 312 312 313 313 302 305 306 306 305 306 306 307 307 307
284 284 284 284 284 284 284 285 285 285 286 286 288 290 291 292 293 294 296 297 299 301 304 308 310 311 312 312 312 310 312 312 310 303 301 301 303 302 304 304 304 305 304
283 283 283 283 283 283 284 284 284 285 285 286 287 289 290 291 293 293 294 296 298 300 302 308 309 310 312 312 311 310 310 310 312 306 299 300 299 300 301 301 302 301 300
282 282 282 282 283 283 283 283 284 284 285 286 286 287 288 290 292 293 293 295 297 299 302 306 309 310 311 311 311 310 310 308 308 307 300 298 298 297 299 298 297 298 297
281 281 282 282 282 282 282 283 283 284 284 285 285 286 287 289 292 292 293 295 296 298 300 303 310 310 310 311 310 310 309 308 306 303 297 296 294 294 296 296 293 293 292
281 281 281 282 282 282 282 283 283 283 283 284 285 285 286 288 291 292 293 295 296 297 299 302 308 310 310 311 311 310 310 309 304 302 298 298 295 295 295 294 290 289 289
280 281 281 281 282 282 282 282 282 283 283 283 284 285 286 289 291 293 294 295 296 297 299 301 305 308 309 310 310 310 311 311 311 308 303 301 296 297 295 291 291 291 289
280 280 280 281 281 281 282 282 283 283 283 283 284 284 286 289 292 293 294 294 295 297 299 301 305 307 309 309 307 305 305 305 305 308 306 305 305 302 298 295 292 291 288
279 280 280 280 280 281 282 283 283 283 283 283 284 285 287 290 291 292 293 294 295 297 299 302 305 307 306 308 305 302 300 300 300 302 303 303 301 299 297 295 291 289 284
278 279 279 279 280 281 282 283 283 283 283 284 285 287 288 290 291 293 296 296 296 298 300 301 305 305 304 308 306 300 295 294 297 296 294 293 294 293 294 295 294 290 284
278 278 278 279 279 281 282 282 284 284 284 285 286 287 289 290 291 293 294 295 297 297 298 300 301 302 302 303 305 301 299 294 290 292 291 291 291 291 292 293 293 292 285
277 277 278 279 279 280 281 282 284 284 285 286 287 289 289 290 291 292 293 294 295 296 297 299 299 298 296 297 299 294 293 293 290 287 285 284 286 286 286 287 286 285 284
276 277 278 278 279 280 282 283 285 285 285 286 289 289 290 291 291 292 293 293 294 296 297 297 295 293 292 292 290 289 291 288 286 285 283 282 283 283 283 283 282 282 281
276 276 277 278 280 281 282 283 285 286 286 287 289 289 290 290 291 291 293 293 294 295 294 292 292 291 291 289 286 286 286 285 285 283 281 281 281 281 281 281 281 281 280
276 277 278 279 280 281 282 284 286 287 288 289 290 289 289 290 291 291 292 292 292 291 290 288 287 285 284 284 284 285 285 285 284 281 280 280 280 280 280 280 280 280 279
276 277 277 279 280 281 282 284 287 288 289 290 290 290 290 290 290 290 291 291 290 288 287 285 284 284 284 283 282 282 282 281 281 280 280 280 280 280 279 280 280 279 278
276 277 278 279 279 280 282 285 288 289 289 290 290 290 290 290 290 290 290 289 288 287 285 284 284 283 283 282 282 281 280 280 281 281 281 280 280 279 279 278 277 278 277
277 277 278 278 280 281 283 285 288 289 289 289 290 290 290 290 290 289 288 287 286 285 284 283 283 282 282 281 281 281 280 280 281 280 280 279 279 278 277 277 277 277 277
276 276 278 280 281 282 282 284 288 289 289 289 290 290 290 289 288 288 288 287 284 283 283 282 282 282 282 281 281 280 280 280 280 280 279 279 278 278 277 276 277 277 277
276 278 280 280 280 279 280 283 286 289 289 289 290 290 289 288 287 286 286 285 284 283 283 283 282 282 281 281 281 280 280 280 279 279 278 278 278 278 277 277 277 276 277
277 278 278 276 277 277 279 282 286 288 289 289 290 290 289 288 286 285 285 284 284 283 284 283 282 282 281 281 281 281 280 279 279 279 278 277 277 277 277 276 276 276 277
277 276 275 275 276 276 278 282 286 288 289 289 289 289 288 287 286 285 284 284 285 285 284 283 282 282 281 281 281 281 280 279 279 278 277 277 277 276 276 276 276 276 277
274 274 274 275 275 277 278 282 288 288 289 289 288 287 288 286 285 284 284 285 284 283 282 282 282 281 281 281 281 281 281 280 279 278 277 276 276 275 275 275 276 276 276
273 273 274 274 275 278 280 282 288 288 289 288 287 286 286 285 284 284 284 283 282 282 282 282 282 281 281 281 281 281 281 280 279 278 278 277 275 275 275 275 275 276 276
273 273 274 275 276 277 280 285 288 288 288 287 286 286 285 285 284 283 283 282 282 282 282 281 281 281 281 281 281 280 279 279 279 278 277 276 276 275 275 274 275 275 275
273 273 274 276 276 277 281 286 288 287 286 285 285 285 284 284 283 283 282 282 282 281 281 281 281 281 281 280 280 280 279 278 278 277 276 276 275 275 274 274 274 274 275
Wind_Speed
25 26 25 25 25 25 24 22 22 22 22 23 23 23 22 20 20 22 23 23 23 23 22 24 25 25 23 24 27 25 24 19 8 6 11 12 13 16 19 18 19 26 26
27 28 27 27 26 25 25 26 26 25 25 23 22 22 23 22 22 22 24 23 23 24 23 25 26 25 28 27 25 23 24 26 14 8 13 12 11 17 19 20 21 23 23
27 28 28 28 27 27 27 28 26 25 25 24 22 23 23 23 23 23 24 25 25 25 26 26 26 26 26 26 27 24 24 24 24 12 10 14 11 19 20 19 20 20 19
28 27 28 28 28 29 28 27 27 26 27 25 24 24 24 25 24 25 25 26 26 26 26 28 28 29 29 29 28 28 26 23 22 22 14 16 14 19 22 24 21 22 21
27 28 28 28 28 27 27 26 26 26 27 27 26 26 24 25 24 23 25 25 26 28 28 27 29 30 31 32 29 28 29 26 24 20 11 10 12 19 22 24 19 23 18
27 29 29 28 28 27 27 27 27 28 28 27 26 26 27 25 24 26 28 28 28 28 28 27 24 37 33 33 36 34 35 31 23 17 14 14 17 21 25 27 24 15 6
28 28 27 27 27 28 29 29 28 28 28 28 28 28 29 27 26 29 28 29 28 28 28 27 26 28 31 34 35 37 35 33 33 33 28 21 21 28 29 24 21 18 9
27 26 26 27 28 29 28 28 29 28 27 28 29 29 28 29 28 28 28 30 29 29 29 29 27 28 32 30 29 27 26 26 27 24 27 26 23 24 27 25 27 21 15
25 26 28 28 29 29 29 29 30 28 27 28 27 27 27 29 27 30 29 27 26 27 28 25 31 27 29 32 28 27 22 19 14 15 16 15 14 18 26 23 27 25 6
27 29 30 30 29 30 31 31 30 27 27 27 27 27 28 29 28 25 23 26 23 25 20 23 25 28 32 36 33 33 28 23 26 25 25 24 20 19 19 20 29 23 13
31 31 31 31 30 29 30 30 29 28 27 26 26 27 25 25 22 19 16 14 17 17 14 16 20 28 30 35 35 35 35 32 30 34 32 30 27 23 20 18 19 17 14
31 31 31 32 31 30 29 30 28 27 25 25 24 23 20 21 18 16 14 11 8 13 15 18 24 29 28 30 33 32 37 35 34 32 30 27 29 26 23 22 18 13 9
31 31 32 32 30 29 28 28 25 24 21 21 20 19 18 19 14 12 11 8 7 14 19 29 28 28 26 29 34 34 36 34 34 30 26 26 26 26 25 24 21 20 21
30 32 31 30 30 30 28 25 22 22 21 20 17 15 16 15 12 8 3 6 12 24 32 29 31 30 34 34 28 28 29 29 32 31 30 29 28 26 25 23 23 20 19
30 31 29 27 28 29 28 26 24 26 25 23 19 17 14 12 9 6 9 14 19 27 34 32 30 27 28 27 27 30 30 30 33 32 31 28 25 24 22 20 18 12 12
31 29 29 29 28 27 27 29 24 23 25 20 16 13 13 10 5 7 11 17 26 30 26 23 21 21 22 24 26 27 24 27 30 31 29 27 26 24 21 16 14 16 17
30 31 29 28 26 26 27 25 24 27 22 16 11 7 5 2 6 10 19 24 21 24 22 19 20 21 22 23 25 25 24 27 31 30 30 28 26 22 21 19 18 18 16
30 31 27 26 26 26 26 26 23 19 17 17 10 5 3 7 17 23 24 23 21 19 20 20 21 22 24 25 26 30 30 30 29 29 28 27 24 24 22 19 18 18 15
30 29 28 27 26 26 26 25 21 18 15 13 5 5 10 18 19 16 18 20 20 19 21 22 24 26 26 28 29 30 31 29 29 28 26 24 24 24 22 21 18 16 14
30 28 29 27 26 24 23 21 20 16 14 8 1 10 18 17 13 13 15 19 21 22 24 27 27 28 28 30 30 31 28 28 27 26 25 24 23 23 24 20 18 16 12
28 29 29 24 22 22 22 21 20 15 12 5 7 16 19 15 13 14 16 19 23 26 28 28 27 27 28 30 31 29 29 27 26 25 24 23 22 22 20 18 17 15 13
27 27 25 24 24 23 22 22 20 14 9 5 10 17 17 14 13 15 18 21 24 27 26 26 26 26 28 28 28 28 27 26 24 24 24 23 21 20 19 18 17 14 12
26 26 25 25 23 22 23 22 15 10 6 8 16 18 18 16 15 18 21 21 21 22 22 24 25 25 24 23 22 23 24 24 23 23 24 23 23 21 19 18 17 14 12
26 26 25 25 23 22 20 20 12 7 5 14 17 17 19 18 19 21 21 20 21 22 23 23 23 24 24 22 20 19 19 20 20 20 20 22 21 19 18 16 15 13 14
27 27 26 24 24 22 21 17 9 2 10 16 17 20 21 22 24 22 20 21 23 24 23 23 24 23 22 22 22 20 19 19 19 19 19 19 19 19 16 16 14 11 9
29 29 26 24 23 22 20 15 3 6 12 16 18 22 24 25 25 22 23 24 24 24 24 24 24 24 23 21 20 20 20 19 19 18 19 19 19 17 15 15 12 9 8
Wind_Direction
326 322 319 318 316 314 312 310 309 306 308 307 302 299 295 299 290 291 285 285 278 274 264 252 247 238 231 233 234 227 223 210 198 182 195 204 201 207 204 203 203 204 198
321 318 316 315 314 313 312 313 314 311 311 307 302 297 296 298 289 289 289 282 279 277 276 253 245 242 230 232 232 225 218 210 190 163 177 175 190 198 204 190 190 192 192
319 316 315 314 314 314 313 313 311 308 305 302 299 295 294 292 284 283 284 282 278 274 273 264 248 241 228 224 221 222 220 206 193 174 156 176 169 187 183 182 182 182 186
317 314 312 312 312 311 309 307 306 306 303 301 298 295 293 290 279 284 286 283 279 278 276 276 243 237 227 220 216 218 211 200 191 187 165 166 173 179 185 170 166 174 174
313 310 309 308 306 305 305 304 304 302 300 298 297 296 291 287 274 282 285 281 281 281 281 274 238 231 232 225 218 210 201 189 185 175 158 146 167 167 182 180 166 174 174
311 307 308 307 306 306 306 306 304 302 301 300 296 294 292 287 276 284 284 279 279 273 274 276 264 232 232 233 231 219 210 189 179 174 170 175 184 178 182 176 160 150 165
310 308 308 309 309 309 309 308 304 301 300 296 295 294 291 289 284 287 282 278 277 269 268 267 255 244 237 226 217 220 220 211 212 202 189 191 180 192 182 170 169 158 145
308 309 311 312 311 309 307 304 302 301 297 295 292 292 289 286 287 286 284 280 273 266 266 266 253 214 218 214 196 185 186 191 203 203 208 208 203 199 195 187 173 153 130
312 313 314 314 312 309 305 304 301 299 296 292 291 289 286 286 290 289 283 274 267 266 265 262 235 224 206 204 178 157 148 151 164 177 182 185 178 185 185 172 156 144 119
317 315 312 312 309 305 303 303 300 297 293 292 290 289 289 290 297 301 299 263 257 265 264 238 225 205 189 194 178 158 129 132 139 132 123 122 133 148 162 175 168 154 130
315 313 311 310 306 303 304 302 298 296 295 293 291 292 291 297 292 297 304 302 248 242 214 185 180 177 179 171 167 167 157 153 136 138 134 134 137 141 146 156 166 163 141
315 313 312 311 308 306 304 302 299 298 294 293 292 298 298 305 297 293 293 289 270 213 178 158 151 152 151 152 158 146 146 147 141 124 121 119 127 127 125 132 138 140 134
317 315 312 311 310 308 305 302 300 300 296 292 292 297 297 308 302 296 289 277 206 178 151 142 138 129 125 125 130 134 143 137 131 123 117 121 127 127 129 127 124 122 117
316 314 313 312 314 312 310 303 295 297 297 294 291 293 300 305 302 299 263 163 152 135 126 121 122 120 122 120 121 123 130 134 131 126 125 128 128 130 128 130 125 122 111
317 314 313 313 313 312 310 305 299 299 297 295 292 287 297 298 293 254 169 145 137 134 125 121 118 117 116 116 116 124 132 134 130 132 130 131 130 131 127 132 129 123 114
316 315 314 315 314 312 312 312 313 308 317 315 303 286 290 286 265 182 171 150 140 133 121 117 115 119 120 121 119 119 122 128 133 135 134 135 135 134 132 129 123 117 115
313 311 312 314 312 311 312 311 309 319 325 330 325 315 300 233 164 152 137 132 128 130 114 114 115 118 118 117 120 124 124 135 142 140 141 141 139 132 134 127 123 120 113
316 314 312 309 310 309 309 309 308 310 318 324 343 355 120 136 132 129 126 126 108 112 113 115 115 119 120 122 129 133 136 140 141 141 140 141 141 137 132 128 131 126 119
317 312 310 311 311 310 308 306 309 309 311 318 339 102 127 130 122 122 147 135 118 112 116 117 123 126 130 138 138 138 141 142 142 141 140 140 139 139 132 130 127 126 122
315 315 318 315 312 310 308 306 306 311 311 309 168 128 133 134 117 119 129 132 125 126 128 130 133 139 145 145 143 141 139 141 142 141 139 140 141 141 135 134 136 132 122
312 318 318 316 312 308 305 302 302 305 305 278 177 160 162 145 126 126 131 135 134 137 138 139 146 146 146 146 147 145 144 144 145 143 142 142 144 143 138 136 134 126 120
323 318 316 313 312 309 306 303 299 306 297 219 161 150 162 143 132 131 135 138 140 141 146 149 148 149 151 151 150 149 147 147 149 148 147 148 150 147 144 141 135 125 116
326 322 319 316 313 312 314 316 303 306 273 179 145 142 152 140 136 138 137 135 140 146 149 150 148 147 149 149 151 151 149 151 153 154 151 150 150 149 148 144 143 125 114
330 325 321 318 317 316 312 316 316 306 212 156 151 152 150 144 141 139 137 142 143 145 148 148 146 144 144 143 144 145 146 147 149 151 152 150 147 149 147 144 143 131 115
334 330 327 323 321 318 319 324 322 282 162 156 151 151 148 145 139 136 141 143 143 144 145 144 142 141 141 140 140 140 141 143 144 147 151 150 149 150 148 145 142 143 139
341 338 334 335 333 334 336 329 337 156 153 152 153 152 149 145 140 140 144 144 143 141 141 141 140 140 139 137 138 140 141 143 145 147 149 149 149 149 149 147 143 139 139